TimeMST,TemperatureF,Dew PointF,Humidity,Sea Level PressureIn,VisibilityMPH,Wind Direction,Wind SpeedMPH,Gust SpeedMPH,PrecipitationIn,Events,Conditions,WindDirDegrees,DateUTC
12:58 AM,40.6,26.1,56,29.98,10.0,SE,9.2,-,N/A,,Clear,130,2013-01-03 07:58:00
1:58 AM,41.7,25.2,52,29.96,10.0,SSE,6.9,-,N/A,,Clear,150,2013-01-03 08:58:00
2:58 AM,37.9,26.4,63,29.98,10.0,ESE,5.8,-,N/A,,Clear,110,2013-01-03 09:58:00
3:58 AM,38.1,26.2,62,29.96,10.0,SE,5.8,-,N/A,,Clear,130,2013-01-03 10:58:00
4:58 AM,38.5,24.8,58,29.96,10.0,SE,8.1,-,N/A,,Clear,130,2013-01-03 11:58:00
5:58 AM,38.8,23.7,55,29.98,10.0,East,5.8,-,N/A,,Clear,80,2013-01-03 12:58:00
6:58 AM,36.9,24.3,60,30.01,10.0,North,3.5,-,N/A,,Clear,10,2013-01-03 13:58:00
7:58 AM,36.3,24.6,63,30.03,10.0,SSE,5.8,-,N/A,,Clear,150,2013-01-03 14:58:00
8:58 AM,43.7,21.7,42,30.05,10.0,SE,4.6,-,N/A,,Clear,140,2013-01-03 15:58:00
9:58 AM,48.9,21.2,34,30.05,10.0,ESE,5.8,-,N/A,,Clear,120,2013-01-03 16:58:00
11:58 AM,55.2,23.0,29,30.02,10.0,NE,9.2,20.7,N/A,,Clear,50,2013-01-03 18:58:00
12:58 PM,56.3,23.0,28,30.00,10.0,Variable,2.3,-,N/A,,Clear,0,2013-01-03 19:58:00
1:58 PM,58.6,25.0,28,29.99,10.0,East,3.5,-,N/A,,Clear,100,2013-01-03 20:58:00
2:58 PM,59.0,25.3,28,29.99,10.0,East,6.9,-,N/A,,Clear,80,2013-01-03 21:58:00
3:58 PM,57.4,25.9,30,30.00,10.0,ENE,12.7,-,N/A,,Clear,60,2013-01-03 22:58:00
4:58 PM,54.9,27.5,35,30.02,10.0,ENE,16.1,-,N/A,,Partly Cloudy,60,2013-01-03 23:58:00
5:58 PM,51.1,27.7,40,30.05,10.0,ENE,15.0,-,N/A,,Clear,70,2013-01-04 00:58:00
6:58 PM,48.4,27.9,45,30.08,10.0,East,13.8,-,N/A,,Clear,80,2013-01-04 01:58:00
7:58 PM,46.4,27.9,48,30.10,10.0,ESE,13.8,-,N/A,,Mostly Cloudy,120,2013-01-04 02:58:00
8:58 PM,46.8,29.8,52,30.11,10.0,East,15.0,-,N/A,,Mostly Cloudy,100,2013-01-04 03:58:00
9:58 PM,45.3,30.2,56,30.12,10.0,East,6.9,-,N/A,,Clear,80,2013-01-04 04:58:00
10:58 PM,44.1,28.9,55,30.16,10.0,East,9.2,-,N/A,,Clear,90,2013-01-04 05:58:00
11:58 PM,44.1,28.2,54,30.13,10.0,East,9.2,-,N/A,,Partly Cloudy,80,2013-01-04 06:58:00